Zurück zum Katalog

PSLV DEB

LostHEO
NORAD 33407·DEBRIS·🇮🇳 India

Gestartet Oct 22, 2008 von Satish Dhawan Space Centre

Loading…

Nächste Überflüge (nächste 24 Stunden)

TLE

VeraltetSource: Space-Track

Epoche: Oct 19, 2023, 03:48 UTC

1 33407U 08052C   23292.15900456  .00001289  00000-0  64579-2 0  9993
2 33407  13.5033 249.6338 6003908 277.7051  21.9919  3.78581075196432

Verfolge PSLV DEB in Echtzeit mit AllMySat

Download on the App Store